PKDRZ WIHH-WIII

Flight info

Callsign PKDRZ
Flight time 0h 18m
Altitude 3000
Route DCT
Aircraft H160/L-SBDGRY/S

Departure

Time 2026-05-06 08:36
Airport Halim Perdanakusuma International Airport (WIHH)

Arrival

Time 2026-05-06 08:54
Airport Soekarno-Hatta International Airport (WIII)
Time Latitude Longitude Altitude Speed Heading
2026-05-06 08:35 -6.25239 106.82884 1992 ft 177 kts 186°
2026-05-06 08:36 -6.26054 106.82787 1994 ft 179 kts 189°
2026-05-06 08:36 -6.27129 106.82171 1991 ft 186 kts 229°
2026-05-06 08:36 -6.27601 106.80969 1839 ft 184 kts 264°
2026-05-06 08:36 -6.27687 106.79691 1750 ft 185 kts 270°
2026-05-06 08:37 -6.27691 106.78447 1894 ft 167 kts 273°
2026-05-06 08:37 -6.27667 106.77342 1906 ft 154 kts 273°
2026-05-06 08:37 -6.27629 106.76259 1925 ft 156 kts 273°
2026-05-06 08:37 -6.27589 106.75175 1932 ft 156 kts 273°
2026-05-06 08:38 -6.27548 106.74088 1935 ft 156 kts 273°
2026-05-06 08:38 -6.27507 106.73001 1937 ft 156 kts 273°
2026-05-06 08:38 -6.27469 106.71912 1939 ft 156 kts 274°
2026-05-06 08:38 -6.27434 106.70822 1939 ft 156 kts 273°
2026-05-06 08:39 -6.27401 106.69733 1937 ft 155 kts 273°
2026-05-06 08:39 -6.27368 106.68645 1939 ft 156 kts 274°
2026-05-06 08:39 -6.27334 106.67556 1940 ft 156 kts 273°
2026-05-06 08:39 -6.27299 106.66466 1940 ft 156 kts 273°
2026-05-06 08:40 -6.27263 106.65374 1941 ft 157 kts 273°
2026-05-06 08:40 -6.27229 106.64284 1940 ft 156 kts 273°
2026-05-06 08:40 -6.27194 106.63195 1941 ft 156 kts 273°
2026-05-06 08:40 -6.27159 106.62104 1942 ft 156 kts 274°
2026-05-06 08:41 -6.27126 106.61018 1960 ft 155 kts 273°
2026-05-06 08:41 -6.27095 106.59928 1972 ft 156 kts 276°
2026-05-06 08:41 -6.26958 106.58846 1977 ft 157 kts 286°
2026-05-06 08:41 -6.26750 106.57765 1962 ft 158 kts 292°
2026-05-06 08:42 -6.26519 106.56677 1951 ft 161 kts 293°
2026-05-06 08:42 -6.26315 106.55570 1948 ft 161 kts 293°
2026-05-06 08:42 -6.26119 106.54465 1943 ft 160 kts 292°
2026-05-06 08:42 -6.25917 106.53365 1943 ft 160 kts 292°
2026-05-06 08:43 -6.25714 106.52264 1963 ft 159 kts 292°
2026-05-06 08:43 -6.25514 106.51165 1976 ft 160 kts 292°
2026-05-06 08:43 -6.25313 106.50066 1978 ft 160 kts 292°
2026-05-06 08:43 -6.25112 106.48966 1961 ft 160 kts 292°
2026-05-06 08:44 -6.24908 106.47868 1952 ft 159 kts 292°
2026-05-06 08:44 -6.24705 106.46765 1945 ft 161 kts 293°
2026-05-06 08:44 -6.24516 106.45654 1945 ft 161 kts 292°
2026-05-06 08:44 -6.24332 106.44543 1943 ft 161 kts 292°
2026-05-06 08:45 -6.24149 106.43435 1942 ft 161 kts 292°
2026-05-06 08:45 -6.23964 106.42322 1942 ft 161 kts 292°
2026-05-06 08:45 -6.23752 106.41223 1947 ft 157 kts 302°
2026-05-06 08:45 -6.23081 106.40450 1936 ft 150 kts 348°
2026-05-06 08:46 -6.22147 106.40565 1942 ft 140 kts 60°
2026-05-06 08:46 -6.21327 106.41195 1940 ft 154 kts 47°
2026-05-06 08:46 -6.20589 106.41901 1950 ft 143 kts 77°
2026-05-06 08:46 -6.20493 106.42905 1936 ft 151 kts 106°
2026-05-06 08:47 -6.20629 106.43957 1941 ft 152 kts 110°
2026-05-06 08:47 -6.20797 106.45000 1942 ft 154 kts 111°
2026-05-06 08:47 -6.20974 106.46056 1939 ft 154 kts 110°
2026-05-06 08:47 -6.21001 106.47138 1939 ft 157 kts 94°
2026-05-06 08:48 -6.20736 106.48193 1941 ft 154 kts 83°
2026-05-06 08:48 -6.20340 106.49183 1940 ft 152 kts 79°
2026-05-06 08:48 -6.19926 106.50157 1938 ft 152 kts 79°
2026-05-06 08:48 -6.19532 106.51121 1955 ft 144 kts 82°
2026-05-06 08:49 -6.19181 106.52017 1949 ft 133 kts 83°
2026-05-06 08:49 -6.18852 106.52853 1945 ft 124 kts 83°
2026-05-06 08:49 -6.18543 106.53631 1944 ft 116 kts 84°
2026-05-06 08:49 -6.18250 106.54370 1938 ft 113 kts 84°
2026-05-06 08:50 -6.17957 106.55106 1938 ft 113 kts 84°
2026-05-06 08:50 -6.17665 106.55842 1883 ft 113 kts 85°
2026-05-06 08:50 -6.17377 106.56574 1729 ft 111 kts 85°
2026-05-06 08:50 -6.17100 106.57275 1577 ft 106 kts 86°
2026-05-06 08:51 -6.16832 106.57948 1435 ft 101 kts 86°
2026-05-06 08:51 -6.16574 106.58596 1296 ft 98 kts 86°
2026-05-06 08:51 -6.16322 106.59220 1163 ft 94 kts 86°
2026-05-06 08:51 -6.16080 106.59826 1036 ft 93 kts 87°
2026-05-06 08:52 -6.15840 106.60431 908 ft 94 kts 87°
2026-05-06 08:52 -6.15599 106.61034 781 ft 92 kts 88°
2026-05-06 08:52 -6.15358 106.61638 659 ft 93 kts 87°
2026-05-06 08:52 -6.15117 106.62242 528 ft 94 kts 88°
2026-05-06 08:53 -6.14875 106.62846 407 ft 93 kts 80°
2026-05-06 08:53 -6.14604 106.63418 359 ft 82 kts 81°
2026-05-06 08:53 -6.14345 106.63992 237 ft 94 kts 81°
2026-05-06 08:53 -6.14160 106.64588 114 ft 81 kts 82°
2026-05-06 08:54 -6.14098 106.65017 103 ft 41 kts 85°
2026-05-06 08:54 -6.14137 106.65205 109 ft 20 kts 75°
2026-05-06 08:54 -6.14119 106.65320 108 ft 17 kts 73°
2026-05-06 08:54 -6.14071 106.65487 66 ft 46 kts 62°
2026-05-06 08:55 -6.14036 106.65537 59 ft 22 kts 73°
2026-05-06 08:55 -6.14060 106.65523 61 ft 23 kts 62°
2026-05-06 08:55 -6.14043 106.65564 37 ft 0 kts 82°
2026-05-06 08:55 -6.14044 106.65565 37 ft 0 kts 65°